KF5JED-13 Weather Reports


time (UTC)temp
C
wind
direction
speed
KPH
gust
KPH
rain 1hr
cm
rain 24hr
cm
rain mn
cm
humidity
%
barometer
mb
20260831164931 31 207 17.7 27.4 0.00 0.00 0.00 41 1019.9
20260831164426 30 208 14.5 24.1 0.00 0.00 0.00 43 1020.1
20260831163921 31 214 14.5 27.4 0.00 0.00 0.00 43 1020.0
20260831163417 30 225 19.3 25.7 0.00 0.00 0.00 44 1020.1
20260831162915 30 209 20.9 27.4 0.00 0.00 0.00 45 1020.0
20260831162411 29 217 19.3 29.0 0.00 0.00 0.00 46 1020.1
20260831161909 30 211 14.5 29.0 0.00 0.00 0.00 46 1020.1
20260831161406 30 210 14.5 27.4 0.00 0.00 0.00 45 1020.0
20260831160901 30 216 20.9 25.7 0.00 0.00 0.00 46 1020.1
20260831160356 30 209 27.4 29.0 0.00 0.00 0.00 46 1020.1
20260831155851 28 213 24.1 29.0 0.00 0.00 0.00 48 1019.9
20260831155351 30 220 27.4 32.2 0.00 0.00 0.00 47 1019.9
20260831154846 28 213 22.5 33.8 0.00 0.00 0.00 49 1019.9
20260831154343 28 217 17.7 27.4 0.00 0.00 0.00 49 1019.8
20260831153841 28 213 16.1 24.1 0.00 0.00 0.00 49 1020.1
20260831153337 28 227 19.3 24.1 0.00 0.00 0.00 50 1019.7
20260831152833 28 210 19.3 33.8 0.00 0.00 0.00 50 1020.0
20260831152329 28 218 12.9 29.0 0.00 0.00 0.00 51 1019.7
20260831151824 27 233 17.7 27.4 0.00 0.00 0.00 51 1020.1
20260831151323 27 218 11.3 25.7 0.00 0.00 0.00 51 1019.8
20260831150818 27 217 16.1 27.4 0.00 0.00 0.00 51 1019.8
20260831150314 27 220 14.5 27.4 0.00 0.00 0.00 51 1019.8
20260831145812 27 217 17.7 24.1 0.00 0.00 0.00 51 1020.0
20260831145309 27 214 11.3 20.9 0.00 0.00 0.00 52 1019.9
20260831144804 26 226 16.1 19.3 0.00 0.00 0.00 53 1020.0
20260831144301 26 255 3.2 12.9 0.00 0.00 0.00 54 1019.9
20260831143800 26 218 9.7 17.7 0.00 0.00 0.00 54 1020.0
20260831143255 26 234 6.4 8.0 0.00 0.00 0.00 55 1019.9
20260831142750 25 234 6.4 8.0 0.00 0.00 0.00 55 1020.0
20260831142246 25 319 4.8 6.4 0.00 0.00 0.00 55 1019.9
20260831141746 25 249 3.2 8.0 0.00 0.00 0.00 56 1019.9
20260831141245 25 197 3.2 4.8 0.00 0.00 0.00 55 1019.7
20260831140740 25 240 1.6 4.8 0.00 0.00 0.00 56 1019.7
20260831140234 24 339 4.8 6.4 0.00 0.00 0.00 57 1019.7
20260831135732 24 323 4.8 9.7 0.00 0.00 0.00 58 1019.6
20260831135228 23 291 4.8 6.4 0.00 0.00 0.00 56 1019.6
20260831134724 23 236 3.2 9.7 0.00 0.00 0.00 58 1019.4
20260831134220 23 216 8.0 14.5 0.00 0.00 0.00 57 1019.2
20260831133719 23 207 9.7 11.3 0.00 0.00 0.00 58 1018.9
20260831133213 23 203 11.3 11.3 0.00 0.00 0.00 58 1019.0
20260831132709 22 170 6.4 8.0 0.00 0.00 0.00 59 1019.2
20260831132208 22 196 6.4 8.0 0.00 0.00 0.00 62 1019.1
20260831131702 22 172 4.8 6.4 0.00 0.00 0.00 63 1018.9
20260831131159 21 157 0.0 3.2 0.00 0.00 0.00 63 1019.0
20260831130654 21 50 0.0 3.2 0.00 0.00 0.00 65 1018.8
20260831130150 21 12 1.6 3.2 0.00 0.00 0.00 65 1019.0
20260831125648 20 30 0.0 1.6 0.00 0.00 0.00 66 1018.7
20260831125144 20 208 1.6 3.2 0.00 0.00 0.00 68 1018.5
20260831124640 20 205 3.2 4.8 0.00 0.00 0.00 69 1018.1
20260831124136 20 187 4.8 8.0 0.00 0.00 0.00 67 1018.1
20260831123635 20 218 6.4 8.0 0.00 0.00 0.00 68 1018.1
20260831123134 18 204 6.4 6.4 0.00 0.00 0.00 70 1018.0
20260831122634 18 183 6.4 6.4 0.00 0.00 0.00 71 1017.9
20260831122130 18 197 4.8 8.0 0.00 0.00 0.00 70 1017.7
20260831121629 18 154 4.8 8.0 0.00 0.00 0.00 71 1017.6
20260831121126 19 185 3.2 4.8 0.00 0.00 0.00 69 1017.7
20260831120621 20 184 3.2 9.7 0.00 0.00 0.00 67 1017.5
20260831120116 20 215 9.7 9.7 0.00 0.00 0.00 67 1017.3
20260831115612 19 203 6.4 9.7 0.00 0.00 0.00 69 1017.3
20260831115107 18 175 4.8 8.0 0.00 0.00 0.00 70 1017.2
20260831114605 18 181 4.8 8.0 0.00 0.00 0.00 70 1017.2
20260831114101 19 162 8.0 9.7 0.00 0.00 0.00 69 1017.2
20260831113600 20 161 8.0 9.7 0.00 0.00 0.00 68 1017.3
20260831113056 20 220 4.8 8.0 0.00 0.00 0.00 65 1017.0
20260831112555 21 226 6.4 9.7 0.00 0.00 0.00 63 1017.1
20260831112050 21 214 9.7 12.9 0.00 0.00 0.00 62 1017.2
20260831111546 20 207 6.4 9.7 0.00 0.00 0.00 65 1017.0
20260831111042 20 184 8.0 9.7 0.00 0.00 0.00 65 1016.9
20260831110537 20 176 9.7 9.7 0.00 0.00 0.00 65 1016.8
20260831110032 20 171 9.7 11.3 0.00 0.00 0.00 65 1016.7
20260831105525 20 183 9.7 11.3 0.00 0.00 0.00 66 1016.9
20260831105020 20 190 4.8 9.7 0.00 0.00 0.00 67 1016.9
20260831104517 19 197 6.4 8.0 0.00 0.00 0.00 67 1017.0
20260831104013 19 191 4.8 6.4 0.00 0.00 0.00 67 1017.0
20260831103513 20 178 3.2 6.4 0.00 0.00 0.00 66 1017.1
20260831103009 20 180 6.4 8.0 0.00 0.00 0.00 67 1017.1
20260831102508 19 193 4.8 8.0 0.00 0.00 0.00 67 1017.0
20260831101958 19 175 4.8 6.4 0.00 0.00 0.00 67 1017.1
20260831101453 20 191 8.0 8.0 0.00 0.00 0.00 65 1017.1
20260831100949 20 182 4.8 6.4 0.00 0.00 0.00 64 1017.1
20260831100445 21 206 8.0 8.0 0.00 0.00 0.00 59 1017.0
20260831095940 21 212 3.2 4.8 0.00 0.00 0.00 61 1017.2
20260831095439 20 210 6.4 6.4 0.00 0.00 0.00 62 1017.0
20260831094933 20 164 4.8 6.4 0.00 0.00 0.00 63 1017.0
20260831094430 21 201 4.8 8.0 0.00 0.00 0.00 60 1017.2
20260831093926 20 202 9.7 9.7 0.00 0.00 0.00 61 1017.0
20260831093421 20 188 4.8 6.4 0.00 0.00 0.00 64 1017.0
20260831092917 20 159 6.4 8.0 0.00 0.00 0.00 63 1017.2
20260831092412 20 170 4.8 4.8 0.00 0.00 0.00 61 1017.0
20260831091907 21 186 3.2 4.8 0.00 0.00 0.00 59 1017.1
20260831091402 21 236 4.8 4.8 0.00 0.00 0.00 59 1017.2
20260831090858 21 249 3.2 8.0 0.00 0.00 0.00 58 1017.2
20260831090348 21 211 9.7 12.9 0.00 0.00 0.00 56 1016.7
20260831085844 21 197 9.7 14.5 0.00 0.00 0.00 56 1016.8
20260831085338 21 204 6.4 14.5 0.00 0.00 0.00 56 1016.6
20260831084833 21 200 12.9 16.1 0.00 0.00 0.00 56 1016.7
20260831084330 21 192 11.3 14.5 0.00 0.00 0.00 57 1016.6
20260831083826 21 189 6.4 14.5 0.00 0.00 0.00 56 1016.5
20260831083321 21 180 9.7 12.9 0.00 0.00 0.00 56 1016.5
20260831082820 21 183 9.7 12.9 0.00 0.00 0.00 57 1016.6
20260831082315 21 187 9.7 12.9 0.00 0.00 0.00 56 1016.6
20260831081810 22 179 8.0 11.3 0.00 0.00 0.00 56 1016.5
20260831081305 22 170 9.7 11.3 0.00 0.00 0.00 55 1016.3
20260831080800 22 195 12.9 14.5 0.00 0.00 0.00 54 1016.5
20260831080255 22 194 11.3 16.1 0.00 0.00 0.00 54 1016.6
20260831075752 22 192 9.7 12.9 0.00 0.00 0.00 56 1016.6
20260831075247 21 172 8.0 9.7 0.00 0.00 0.00 58 1016.6
20260831074746 21 182 8.0 9.7 0.00 0.00 0.00 57 1016.7
20260831074240 22 178 8.0 9.7 0.00 0.00 0.00 56 1016.6
20260831073737 22 182 9.7 11.3 0.00 0.00 0.00 55 1016.8
20260831073235 22 181 8.0 12.9 0.00 0.00 0.00 54 1016.6
20260831072730 22 188 8.0 11.3 0.00 0.00 0.00 53 1016.8
20260831072226 23 197 6.4 14.5 0.00 0.00 0.00 52 1016.5
20260831071721 23 200 11.3 19.3 0.00 0.00 0.00 50 1016.5
20260831071215 23 205 8.0 14.5 0.00 0.00 0.00 50 1016.8
20260831070714 24 188 9.7 16.1 0.00 0.00 0.00 49 1016.6
20260831070208 24 204 11.3 20.9 0.00 0.00 0.00 49 1016.8
20260831065703 25 180 17.7 22.5 0.00 0.00 0.00 48 1016.5
20260831065201 25 185 12.9 19.3 0.00 0.00 0.00 48 1016.5
20260831064656 25 177 12.9 19.3 0.00 0.00 0.00 48 1016.6
20260831064151 25 189 14.5 19.3 0.00 0.00 0.00 47 1016.2
20260831063647 25 174 17.7 17.7 0.00 0.00 0.00 47 1016.5
20260831063143 25 174 12.9 22.5 0.00 0.00 0.00 46 1016.2
20260831062642 25 160 16.1 20.9 0.00 0.00 0.00 47 1016.3
20260831062142 24 182 11.3 16.1 0.00 0.00 0.00 48 1016.6
20260831061640 23 193 8.0 11.3 0.00 0.00 0.00 49 1016.3
20260831061136 24 194 8.0 14.5 0.00 0.00 0.00 48 1016.5
20260831060632 24 199 9.7 12.9 0.00 0.00 0.00 47 1016.5
20260831060126 24 198 11.3 12.9 0.00 0.00 0.00 47 1016.6
20260831055625 25 185 9.7 12.9 0.00 0.00 0.00 46 1016.5
20260831055121 25 168 9.7 14.5 0.00 0.00 0.00 46 1016.5
20260831054621 25 159 14.5 16.1 0.00 0.00 0.00 46 1016.3
20260831054115 25 173 11.3 17.7 0.00 0.00 0.00 45 1016.0
20260831053614 25 170 11.3 19.3 0.00 0.00 0.00 45 1016.1
20260831053108 25 166 12.9 19.3 0.00 0.00 0.00 44 1016.1
20260831052607 26 169 16.1 20.9 0.00 0.00 0.00 43 1016.2
20260831052101 26 183 14.5 20.9 0.00 0.00 0.00 42 1016.0
20260831051559 26 162 17.7 22.5 0.00 0.00 0.00 43 1016.0
20260831051059 26 171 17.7 20.9 0.00 0.00 0.00 43 1016.1
20260831050558 26 174 14.5 24.1 0.00 0.00 0.00 42 1016.1
20260831050057 26 169 14.5 20.9 0.00 0.00 0.00 42 1015.9
20260831045556 26 165 12.9 19.3 0.00 0.00 0.00 42 1016.0
20260831045052 26 167 11.3 19.3 0.00 0.00 0.00 42 1015.8
20260831044548 26 177 12.9 19.3 0.00 0.00 0.00 41 1016.0
20260831044043 26 163 17.7 22.5 0.00 0.00 0.00 41 1015.9
20260831043537 26 180 16.1 17.7 0.00 0.00 0.00 41 1015.8
20260831043032 26 177 12.9 19.3 0.00 0.00 0.00 41 1015.8
20260831042527 26 167 19.3 22.5 0.00 0.00 0.00 41 1015.9
20260831042026 26 167 12.9 20.9 0.00 0.00 0.00 41 1015.9
20260831041521 26 172 14.5 20.9 0.00 0.00 0.00 41 1015.9
20260831041016 27 161 16.1 17.7 0.00 0.00 0.00 41 1015.9
20260831040511 27 168 17.7 24.1 0.00 0.00 0.00 40 1015.7
20260831040010 27 164 17.7 24.1 0.00 0.00 0.00 40 1015.8
20260831035507 27 161 16.1 24.1 0.00 0.00 0.00 40 1015.9
20260831035002 27 169 17.7 22.5 0.00 0.00 0.00 40 1015.9
20260831034451 27 189 14.5 19.3 0.00 0.00 0.00 40 1015.9
20260831033947 27 168 17.7 20.9 0.00 0.00 0.00 40 1015.8
20260831033442 27 173 11.3 20.9 0.00 0.00 0.00 40 1015.8
20260831032937 27 163 12.9 20.9 0.00 0.00 0.00 40 1015.7
20260831032432 27 157 11.3 22.5 0.00 0.00 0.00 40 1015.7
20260831031927 27 169 14.5 19.3 0.00 0.00 0.00 40 1015.6
20260831031427 27 163 11.3 19.3 0.00 0.00 0.00 40 1015.7
20260831030921 28 163 14.5 20.9 0.00 0.00 0.00 39 1015.6
20260831030420 28 161 14.5 20.9 0.00 0.00 0.00 39 1015.7
20260831025919 28 172 17.7 22.5 0.00 0.00 0.00 38 1015.5
20260831025418 28 159 14.5 24.1 0.00 0.00 0.00 38 1015.5
20260831024914 28 157 17.7 22.5 0.00 0.00 0.00 38 1015.0
20260831024414 29 163 19.3 24.1 0.00 0.00 0.00 37 1015.5
20260831023913 29 157 17.7 24.1 0.00 0.00 0.00 37 1015.3
20260831023412 29 156 17.7 22.5 0.00 0.00 0.00 37 1015.2
20260831022907 30 151 22.5 27.4 0.00 0.00 0.00 37 1015.1
20260831022406 30 156 14.5 22.5 0.00 0.00 0.00 37 1015.0
20260831021901 30 154 19.3 20.9 0.00 0.00 0.00 37 1015.0
20260831021400 30 163 16.1 24.1 0.00 0.00 0.00 36 1015.1
20260831020856 30 154 17.7 22.5 0.00 0.00 0.00 36 1015.0
20260831020355 30 156 19.3 22.5 0.00 0.00 0.00 36 1015.3
20260831015851 30 163 20.9 22.5 0.00 0.00 0.00 36 1014.9
20260831015347 30 158 17.7 20.9 0.00 0.00 0.00 36 1015.0
20260831014846 30 152 17.7 20.9 0.00 0.00 0.00 35 1015.1
20260831014341 30 158 14.5 20.9 0.00 0.00 0.00 35 1014.8
20260831013837 31 163 19.3 22.5 0.00 0.00 0.00 34 1014.8
20260831013332 31 171 14.5 20.9 0.00 0.00 0.00 34 1014.8
20260831012826 31 164 14.5 19.3 0.00 0.00 0.00 34 1014.9
20260831012322 31 156 17.7 20.9 0.00 0.00 0.00 33 1014.8
20260831011821 32 162 17.7 24.1 0.00 0.00 0.00 33 1014.8
20260831011316 31 168 11.3 20.9 0.00 0.00 0.00 33 1014.7
20260831010812 32 161 12.9 22.5 0.00 0.00 0.00 33 1014.6
20260831010306 32 161 12.9 27.4 0.00 0.00 0.00 32 1014.7
20260831005803 32 158 17.7 27.4 0.00 0.00 0.00 31 1014.7
20260831005258 33 164 16.1 25.7 0.00 0.00 0.00 31 1014.8
20260831004752 33 165 22.5 35.4 0.00 0.00 0.00 30 1014.5
20260831004249 33 165 20.9 29.0 0.00 0.00 0.00 30 1014.6
20260831003744 33 155 20.9 27.4 0.00 0.00 0.00 29 1014.6
20260831003240 34 172 22.5 27.4 0.00 0.00 0.00 29 1014.5
20260831002739 34 156 19.3 29.0 0.00 0.00 0.00 29 1014.5
20260831002238 35 162 35.4 35.4 0.00 0.00 0.00 28 1014.5
20260831001735 35 163 24.1 33.8 0.00 0.00 0.00 28 1014.5
20260831001230 35 175 24.1 35.4 0.00 0.00 0.00 28 1014.5
20260831000726 35 160 24.1 30.6 0.00 0.00 0.00 28 1014.5
20260831000221 35 178 24.1 30.6 0.00 0.00 0.00 27 1014.5
20260830235720 35 158 24.1 30.6 0.00 0.00 0.00 27 1014.5
20260830235215 36 187 17.7 30.6 0.00 0.00 0.00 27 1014.3
20260830234710 36 195 25.7 27.4 0.00 0.00 0.00 27 1014.7
20260830234206 36 182 12.9 24.1 0.00 0.00 0.00 27 1014.7
20260830233701 36 182 11.3 27.4 0.00 0.00 0.00 27 1014.6
20260830233157 36 158 25.7 33.8 0.00 0.00 0.00 26 1014.6
20260830232652 36 177 22.5 25.7 0.00 0.00 0.00 26 1014.7
20260830232149 36 157 19.3 29.0 0.00 0.00 0.00 26 1014.7
20260830231645 37 152 14.5 22.5 0.00 0.00 0.00 26 1014.6
20260830231144 36 173 24.1 35.4 0.00 0.00 0.00 26 1014.6
20260830230639 36 179 16.1 20.9 0.00 0.00 0.00 26 1014.6
20260830230139 36 171 19.3 25.7 0.00 0.00 0.00 26 1014.5
20260830225634 36 166 29.0 33.8 0.00 0.00 0.00 26 1014.5
20260830225128 36 167 20.9 33.8 0.00 0.00 0.00 26 1014.6
20260830224628 37 191 29.0 40.2 0.00 0.00 0.00 25 1014.5
20260830224124 37 158 19.3 24.1 0.00 0.00 0.00 26 1014.6
20260830223621 37 189 24.1 33.8 0.00 0.00 0.00 25 1014.7
20260830223120 37 167 20.9 30.6 0.00 0.00 0.00 26 1014.8
20260830222614 36 198 22.5 33.8 0.00 0.00 0.00 26 1015.0
20260830222105 36 162 17.7 27.4 0.00 0.00 0.00 26 1014.8
20260830221600 37 171 22.5 33.8 0.00 0.00 0.00 26 1014.7
20260830221056 37 169 20.9 24.1 0.00 0.00 0.00 26 1014.7
20260830220551 37 199 22.5 29.0 0.00 0.00 0.00 26 1014.7
20260830220049 37 203 33.8 37.0 0.00 0.00 0.00 26 1014.9
20260830215544 37 176 11.3 30.6 0.00 0.00 0.00 27 1014.8
20260830215038 37 161 17.7 30.6 0.00 0.00 0.00 26 1014.9
20260830214533 37 176 17.7 24.1 0.00 0.00 0.00 26 1014.8
20260830214028 37 165 22.5 35.4 0.00 0.00 0.00 26 1014.8
20260830213527 37 187 22.5 30.6 0.00 0.00 0.00 25 1014.9
20260830213023 37 165 20.9 30.6 0.00 0.00 0.00 26 1014.8
20260830212519 38 184 19.3 29.0 0.00 0.00 0.00 25 1015.0
20260830212014 37 209 19.3 24.1 0.00 0.00 0.00 25 1015.1
20260830211508 37 206 24.1 29.0 0.00 0.00 0.00 25 1015.3
20260830211003 37 210 17.7 27.4 0.00 0.00 0.00 26 1015.1
20260830210503 36 215 22.5 29.0 0.00 0.00 0.00 26 1015.3
20260830210001 36 203 12.9 41.8 0.00 0.00 0.00 26 1015.2
20260830205500 37 213 29.0 33.8 0.00 0.00 0.00 25 1015.5
20260830204955 37 159 29.0 30.6 0.00 0.00 0.00 25 1015.5
20260830204454 37 204 37.0 37.0 0.00 0.00 0.00 26 1015.5
20260830203949 37 212 22.5 29.0 0.00 0.00 0.00 26 1015.6
20260830203446 37 189 17.7 33.8 0.00 0.00 0.00 26 1015.6
20260830202945 36 220 22.5 27.4 0.00 0.00 0.00 27 1015.8
20260830202440 37 215 27.4 40.2 0.00 0.00 0.00 27 1015.7
20260830201937 37 201 20.9 38.6 0.00 0.00 0.00 27 1015.8
20260830201430 36 203 20.9 35.4 0.00 0.00 0.00 27 1015.9
20260830200925 36 232 27.4 30.6 0.00 0.00 0.00 28 1015.9
20260830200420 36 202 25.7 46.7 0.00 0.00 0.00 28 1016.0
20260830195914 37 207 25.7 33.8 0.00 0.00 0.00 27 1016.1
20260830195415 36 210 16.1 33.8 0.00 0.00 0.00 27 1016.0
20260830194913 36 221 20.9 30.6 0.00 0.00 0.00 28 1015.9
20260830194413 35 216 30.6 33.8 0.00 0.00 0.00 29 1016.2
20260830193912 36 218 19.3 27.4 0.00 0.00 0.00 28 1016.2
20260830193411 36 212 27.4 40.2 0.00 0.00 0.00 28 1016.1
20260830192907 36 224 16.1 29.0 0.00 0.00 0.00 28 1016.3
20260830192402 36 238 20.9 41.8 0.00 0.00 0.00 28 1016.5
20260830191857 36 213 19.3 32.2 0.00 0.00 0.00 28 1016.2
20260830191357 36 183 30.6 43.5 0.00 0.00 0.00 27 1016.3
20260830190853 36 196 24.1 29.0 0.00 0.00 0.00 27 1016.7
20260830190348 36 210 32.2 40.2 0.00 0.00 0.00 28 1016.2
20260830185846 36 189 27.4 40.2 0.00 0.00 0.00 27 1016.5
20260830185342 36 172 20.9 37.0 0.00 0.00 0.00 27 1016.5
20260830184837 35 217 20.9 37.0 0.00 0.00 0.00 27 1016.6
20260830184336 35 199 12.9 30.6 0.00 0.00 0.00 28 1016.6
20260830183831 35 203 20.9 40.2 0.00 0.00 0.00 28 1016.8
20260830183331 35 212 27.4 33.8 0.00 0.00 0.00 29 1016.9
20260830182826 35 218 25.7 33.8 0.00 0.00 0.00 29 1016.9
20260830182322 35 210 27.4 37.0 0.00 0.00 0.00 29 1017.0
20260830181818 35 203 19.3 32.2 0.00 0.00 0.00 31 1017.0
20260830181314 35 208 16.1 37.0 0.00 0.00 0.00 31 1017.1
20260830180807 35 203 27.4 33.8 0.00 0.00 0.00 31 1017.5
20260830180302 35 203 29.0 33.8 0.00 0.00 0.00 30 1017.2
20260830175801 35 189 25.7 33.8 0.00 0.00 0.00 31 1017.1
20260830175256 35 206 27.4 40.2 0.00 0.00 0.00 32 1017.5
20260830174750 34 228 20.9 37.0 0.00 0.00 0.00 33 1017.3
20260830174246 34 177 25.7 33.8 0.00 0.00 0.00 33 1017.6
20260830173745 35 197 27.4 37.0 0.00 0.00 0.00 34 1017.7
20260830173241 33 213 19.3 38.6 0.00 0.00 0.00 35 1017.8
20260830172737 34 195 17.7 35.4 0.00 0.00 0.00 35 1017.8
20260830172234 33 197 25.7 37.0 0.00 0.00 0.00 36 1017.8
20260830171729 34 193 35.4 41.8 0.00 0.00 0.00 35 1017.9
20260830171224 33 222 30.6 41.8 0.00 0.00 0.00 37 1017.7
20260830170719 33 213 22.5 33.8 0.00 0.00 0.00 37 1017.9
20260830170218 32 218 37.0 43.5 0.00 0.00 0.00 37 1018.0
20260830165717 33 216 30.6 40.2 0.00 0.00 0.00 38 1018.0